[Date Prev][Date Next][Thread Prev][Thread Next] - [Date Index][Thread Index][Author Index]

2 Line ISS Keps 3-21



ISS
1 25544U 98067A   04081.18432870  .00020574  00000-0  19342-3 0  4104
2 25544  51.6285  54.0560 0010600 302.3735 249.0142 15.67045701304509


----
Via the sarex mailing list at AMSAT.ORG courtesy of AMSAT-NA.
To unsubscribe, send "unsubscribe sarex" to Majordomo@amsat.org



AMSAT Top AMSAT Home